RH
54 48 42 32 23 19 18 16 15 15 15 16 16 16 15 15 15 15 15 15 15 15 15 14 14 13 12 12 11 10 10 9 8 7 7 7 7 7 8 10 13 16 19 21 21 22 23 25 27 31 35 39 43 47 49 51 52 55 60 64 67 71 74 79 82 83 85 86 85 86 88 91 93 93 95 96 96 96 96 97 98 98 99 98 98
60 51 41 31 25 24 21 19 18 17 17 17 17 17 16 16 16 15 16 16 15 16 15 15 15 14 13 12 12 11 10 9 9 8 7 7 7 8 9 12 15 19 22 23 24 25 26 28 32 36 40 44 48 50 52 53 54 56 60 63 67 71 74 77 81 83 85 87 87 87 88 90 91 93 94 95 96 96 96 97 96 97 97 97 96
67 54 40 32 29 28 24 22 21 20 19 18 18 17 17 16 16 16 16 16 16 16 16 15 15 14 14 13 12 12 11 10 9 8 8 8 8 9 11 14 18 22 24 26 27 28 30 33 37 41 45 49 52 54 54 55 56 57 60 64 67 71 74 78 81 83 85 86 86 87 87 89 91 92 94 95 95 95 94 95 94 95 97 96 96
74 60 43 35 33 32 28 26 25 23 21 20 19 18 17 17 17 17 17 16 16 16 16 16 15 15 14 14 13 12 11 10 10 9 9 8 9 10 12 17 21 24 27 28 29 31 34 38 42 46 50 53 55 56 57 58 58 60 62 65 69 72 75 78 81 84 86 86 87 87 88 89 90 91 93 93 93 93 93 94 93 94 97 98 99
79 65 49 40 38 36 34 31 29 26 24 22 20 19 19 18 18 17 17 17 17 16 16 16 16 15 15 14 13 13 12 11 10 10 9 9 10 11 14 19 23 26 29 31 32 35 38 43 47 51 53 55 56 58 59 61 62 63 65 67 70 74 76 79 82 84 86 87 87 87 88 89 90 91 92 92 93 93 92 93 94 95 96 98 98
80 69 56 49 46 42 38 36 33 29 26 23 22 21 20 19 19 18 17 17 17 17 16 16 16 16 16 15 14 13 12 12 11 10 10 10 11 13 16 21 26 29 32 34 36 38 42 46 50 53 55 57 58 60 62 64 66 67 68 70 73 75 78 80 81 83 85 85 86 87 88 89 90 91 92 92 93 93 92 93 93 94 95 95 93
80 72 64 60 57 49 43 41 37 33 29 25 23 22 21 20 19 18 18 18 17 17 17 17 17 16 16 16 15 14 13 12 12 11 11 11 12 15 19 24 28 32 35 37 40 43 46 50 53 56 57 58 60 62 65 67 69 70 72 73 75 77 78 80 81 82 83 84 85 86 87 88 89 90 92 92 93 94 93 93 91 90 90 89 86
81 75 70 68 64 55 48 45 41 35 31 27 25 23 21 21 20 19 19 18 18 18 17 17 18 17 17 16 16 15 14 13 13 12 12 13 14 17 22 27 32 36 39 41 44 47 50 53 56 58 60 61 63 66 68 70 71 72 74 75 76 78 78 79 80 82 84 85 85 86 87 88 89 90 91 92 93 93 92 91 88 84 80 77 74
82 78 75 72 68 61 54 49 44 39 33 29 27 25 22 22 21 20 20 19 18 18 18 18 19 18 18 17 17 16 15 14 13 13 13 14 16 20 24 30 35 40 44 46 49 51 54 57 59 61 63 65 67 69 71 72 73 74 75 76 77 78 79 80 81 83 84 85 86 87 87 87 87 89 90 91 90 89 86 83 79 75 71 67 62
84 80 78 76 73 67 59 53 48 41 35 31 29 26 24 23 23 22 21 20 20 19 19 20 20 20 19 18 18 17 16 15 14 14 15 16 19 23 27 33 39 45 49 52 54 56 58 60 62 64 65 67 70 72 74 75 76 76 76 76 77 78 80 82 84 84 85 86 87 88 88 87 87 87 88 86 84 81 77 72 67 63 59 53 48
85 83 82 80 79 71 62 56 49 42 37 33 30 28 26 25 24 24 23 22 22 21 21 22 21 21 21 20 19 18 17 16 16 16 17 19 22 26 31 37 43 49 54 58 59 60 62 63 65 66 68 70 72 74 76 78 78 78 78 78 78 78 80 83 85 86 87 87 88 89 88 87 86 84 82 79 75 70 65 59 53 47 43 38 33
87 86 84 84 81 71 62 55 49 43 37 34 31 29 28 27 26 26 26 25 24 24 24 24 23 23 22 21 20 19 18 17 17 18 20 22 26 31 35 41 47 54 59 62 64 65 65 66 68 69 70 72 74 77 79 79 79 79 79 79 79 80 81 84 86 87 88 89 89 88 86 84 81 77 72 66 61 56 50 44 39 33 29 26 23
89 87 87 86 79 68 60 55 48 42 37 34 33 32 31 30 29 29 29 28 27 27 26 26 25 24 23 22 21 20 19 19 19 20 23 26 31 35 40 46 53 59 65 67 68 68 68 70 71 72 74 76 78 80 81 80 79 79 79 80 81 83 85 86 88 89 90 90 87 84 80 76 71 65 59 53 48 42 36 30 26 22 19 18 17
90 89 89 85 76 66 60 52 43 38 36 35 35 35 34 33 32 32 31 30 29 29 28 27 27 26 24 23 22 21 21 21 21 23 26 30 34 40 46 53 58 64 69 71 72 72 72 73 74 76 78 79 81 82 81 79 78 78 79 81 83 86 89 90 90 90 90 87 81 76 71 65 59 54 49 43 36 29 23 18 16 15 14 14 14
91 91 89 82 73 63 53 43 37 36 36 37 38 37 36 35 34 33 32 32 31 30 30 29 28 27 26 24 23 22 22 23 24 26 30 34 39 45 52 58 64 69 73 74 76 76 76 76 78 80 82 83 84 83 80 78 77 77 79 82 85 88 91 92 92 89 86 81 74 68 62 56 49 42 36 29 22 18 15 14 13 13 12 13 13
92 90 86 77 65 53 42 37 37 38 39 40 39 38 37 36 35 35 33 33 32 32 31 30 29 28 27 25 24 24 24 25 27 30 33 38 44 50 57 64 68 73 76 78 79 79 80 81 82 83 85 85 85 84 82 79 78 77 80 84 88 91 92 92 91 87 81 74 66 59 51 44 36 28 22 17 14 14 13 13 13 13 12 13 13
92 88 80 69 55 44 39 39 40 41 42 42 41 40 40 38 37 37 36 35 34 34 33 31 30 29 28 26 26 25 26 28 30 33 36 41 47 55 62 68 73 76 79 81 82 83 84 84 86 87 87 88 87 86 83 80 78 78 81 85 90 93 93 91 88 84 77 68 58 49 41 34 28 21 16 13 12 13 13 13 13 12 12 12 13
90 83 74 62 52 47 46 45 44 44 45 44 43 43 42 41 41 40 39 38 37 35 34 33 31 30 28 28 27 27 28 30 33 36 39 44 51 59 67 73 77 80 82 83 85 87 87 88 88 90 90 91 90 87 84 82 79 78 81 86 90 93 94 91 86 81 74 66 56 47 38 30 25 20 15 13 13 13 14 13 12 12 12 13 14
85 78 69 60 54 53 52 49 48 47 46 45 45 44 44 43 42 41 40 39 38 36 34 33 31 30 29 29 29 30 31 33 36 39 42 47 55 63 72 79 82 84 86 87 89 90 91 91 91 92 94 94 92 90 87 84 80 78 81 85 90 93 93 90 85 79 72 65 56 47 37 29 24 20 16 14 13 13 13 12 12 13 13 14 15
82 76 69 64 60 58 55 52 50 48 47 46 46 46 46 45 43 42 41 40 38 36 34 32 31 30 29 29 30 31 33 35 37 40 45 52 60 69 78 85 87 89 90 91 92 93 94 95 95 96 97 96 94 92 90 87 83 80 82 86 90 93 93 90 86 79 70 62 54 45 37 31 27 22 17 15 14 12 12 13 13 14 14 15 16
81 78 76 73 69 64 60 56 53 51 50 49 49 49 49 47 45 43 42 40 39 37 35 33 31 30 29 30 31 32 34 36 39 42 48 55 64 73 83 89 92 94 94 93 95 96 97 99 99 99 99 97 95 94 92 88 85 82 83 87 91 94 94 90 85 78 70 63 54 46 40 34 28 23 19 17 16 15 14 15 14 15 15 16 18
83 82 82 79 75 70 66 61 58 55 54 53 52 52 52 49 46 44 42 41 39 37 35 33 32 30 30 30 31 33 35 37 40 44 50 57 66 76 85 91 95 96 97 96 97 98 100 102 103 102 101 98 97 95 93 89 86 84 85 88 91 94 94 90 85 79 71 63 55 48 40 33 27 23 21 20 19 17 16 15 15 15 16 17 20
80 79 81 80 77 75 72 67 64 61 59 57 56 56 55 52 48 45 43 42 40 38 36 34 32 31 30 30 32 33 35 38 42 46 51 58 68 77 85 91 95 98 100 99 99 101 103 104 104 104 103 100 98 96 93 89 87 86 87 90 93 95 94 90 84 78 70 62 56 48 40 32 27 24 22 20 19 17 15 15 15 15 17 19 21
73 74 78 79 80 79 77 74 71 69 66 62 60 59 58 55 50 46 45 44 41 39 36 33 32 31 30 31 32 33 36 40 44 48 52 59 68 78 86 92 96 99 101 101 101 102 102 102 103 103 103 102 99 96 93 89 87 87 88 91 94 96 94 89 83 75 68 60 53 44 36 29 25 23 21 19 17 16 15 15 15 16 18 20 22
71 74 76 77 79 79 79 80 79 76 73 68 64 63 61 57 52 48 46 45 42 39 36 33 32 30 30 30 31 32 36 41 44 49 53 59 69 79 87 94 98 100 101 101 101 102 101 100 101 101 102 103 100 95 92 89 87 87 88 91 95 97 94 89 80 72 64 56 48 39 32 27 24 22 20 18 17 16 15 15 16 17 19 22 24
79 81 82 82 81 79 80 83 83 82 78 73 68 65 63 59 53 48 47 45 42 39 36 33 31 29 28 28 29 31 34 38 43 47 52 59 71 83 92 98 101 101 100 100 101 101 100 100 101 101 102 103 100 95 91 89 87 88 89 92 95 97 94 88 79 70 61 52 44 36 30 26 24 22 19 17 16 16 16 16 17 20 22 25 27
87 88 90 89 85 81 81 84 84 83 81 75 69 67 65 60 54 49 47 46 43 39 36 33 30 29 28 27 28 30 33 37 41 44 49 60 75 89 97 101 101 100 100 100 100 101 100 100 101 103 103 103 100 96 92 90 88 88 89 92 94 95 93 87 78 69 59 50 42 35 31 28 24 20 18 17 16 16 17 18 19 22 25 28 30
95 96 97 95 88 84 84 84 83 82 78 72 69 68 66 60 54 51 49 46 43 40 37 34 31 29 28 28 28 29 32 37 40 42 49 63 78 90 97 100 101 100 100 100 100 100 100 100 100 102 103 102 99 96 93 90 89 88 90 93 94 95 92 87 78 68 58 49 41 35 30 26 22 19 17 16 16 16 18 20 22 25 28 30 31
100 100 99 94 89 86 86 85 83 77 71 67 68 68 65 60 55 53 50 47 45 42 39 37 35 33 32 30 30 29 31 35 38 41 49 64 78 88 95 99 101 100 100 100 100 100 100 100 100 101 103 102 98 95 93 91 90 89 91 94 96 96 93 87 78 67 56 46 39 33 28 24 20 18 17 16 16 17 19 22 25 27 30 31 30
100 99 96 93 91 90 89 85 78 71 66 65 67 68 64 59 57 55 52 49 46 45 43 42 40 39 37 35 33 32 31 33 36 39 48 63 77 88 95 99 100 101 100 100 100 100 100 100 100 101 103 101 99 96 94 93 92 92 94 96 98 98 94 85 75 63 52 43 37 31 26 23 20 19 18 18 17 18 21 25 28 30 31 30 27
100 98 97 96 94 90 84 77 70 66 66 67 68 66 63 61 59 57 53 50 49 47 47 46 45 44 43 41 39 37 35 34 36 39 47 60 76 89 96 98 100 101 100 100 100 100 100 100 100 101 101 101 99 96 94 94 94 95 96 98 99 98 93 83 71 60 50 41 35 29 25 22 21 19 19 19 20 22 25 28 30 31 30 28 26
100 100 99 96 89 82 75 69 66 67 68 69 68 66 65 64 63 60 57 54 52 51 51 50 50 49 48 46 45 42 40 38 38 40 45 57 73 88 95 97 99 100 101 100 100 100 100 100 100 100 100 101 100 97 95 94 94 95 97 99 99 96 90 80 69 57 47 38 32 28 24 21 20 20 20 21 24 27 30 31 32 30 28 26 26
101 100 96 89 81 75 70 67 68 70 71 70 69 68 69 69 69 66 62 58 57 57 56 55 54 53 53 51 49 47 45 42 42 43 47 56 71 87 95 95 97 100 101 100 100 101 100 100 100 100 101 102 101 99 98 95 93 94 97 99 99 95 87 77 65 52 42 34 29 26 23 20 20 21 22 25 28 30 33 32 29 27 26 25 25
100 97 90 82 76 72 69 69 71 73 73 72 72 72 74 76 75 73 70 65 62 62 61 60 59 58 57 56 54 52 50 47 45 47 50 57 71 86 94 94 95 99 101 101 100 100 100 100 100 100 101 103 102 101 99 96 93 94 97 99 99 93 83 72 59 47 39 32 27 24 22 21 22 24 26 29 32 33 32 30 27 26 26 24 24
98 93 87 81 77 74 73 74 76 77 78 77 77 79 81 82 81 80 76 72 69 68 67 66 64 62 60 60 58 56 54 51 49 49 53 62 73 84 93 96 97 99 102 102 100 100 99 99 100 100 101 104 104 102 99 95 92 94 98 100 98 90 79 67 55 45 37 30 26 23 22 22 24 27 30 33 34 32 30 27 26 26 25 24 25
94 91 88 85 81 78 77 78 80 83 84 84 84 85 86 86 84 81 78 75 73 71 69 69 67 65 63 62 61 60 58 55 53 52 56 66 75 84 93 99 100 101 102 102 100 100 100 100 101 100 101 103 105 102 98 93 92 96 100 101 96 87 75 63 52 43 35 29 25 24 24 25 27 30 33 34 32 30 28 27 26 26 25 25 24
94 94 92 89 85 83 82 84 87 90 90 90 90 89 88 85 82 78 75 73 72 70 68 67 66 64 64 63 63 62 61 59 57 55 58 68 78 88 97 103 103 101 101 100 100 101 100 100 101 100 100 103 104 101 96 93 94 98 101 100 93 83 71 59 49 40 33 28 25 24 25 27 30 32 34 33 30 28 28 27 26 26 26 24 20
98 99 98 94 91 90 91 93 94 94 94 93 91 88 85 82 78 74 72 70 67 66 65 64 62 62 62 61 62 63 63 62 60 59 61 70 82 93 100 104 103 102 101 100 100 100 100 100 101 100 100 102 103 100 95 94 96 99 101 98 90 78 65 54 45 37 31 27 25 26 27 29 32 34 34 31 28 28 28 27 26 26 23 20 17
101 102 102 99 96 95 95 94 94 93 91 90 87 83 79 76 72 69 67 64 61 59 57 55 54 55 55 57 59 62 64 65 65 65 68 75 86 96 101 102 102 103 102 100 100 100 100 100 100 100 100 102 102 99 96 95 97 100 100 95 84 71 59 50 41 34 30 27 27 28 29 32 35 35 33 29 28 28 27 26 26 24 19 16 15
101 102 101 99 98 97 95 93 92 90 87 84 80 76 73 69 65 61 57 52 48 45 41 39 40 42 46 52 58 63 67 71 73 75 79 86 94 100 101 100 101 103 102 100 100 100 100 100 100 100 101 103 102 99 96 96 99 100 97 89 77 65 55 47 39 33 29 28 29 30 32 35 36 34 31 30 29 27 26 26 24 20 16 14 13
103 102 102 101 100 99 96 92 89 85 80 76 72 68 63 58 52 47 41 36 32 30 29 31 34 39 45 53 61 68 74 78 82 86 92 97 100 101 100 100 101 102 101 100 100 100 100 100 100 100 102 103 102 99 97 98 100 100 94 83 70 59 50 43 37 32 30 30 30 32 35 36 34 32 31 30 28 27 27 25 19 15 14 14 14
102 102 103 102 100 95 91 87 82 77 73 68 62 56 50 43 37 32 29 27 26 27 30 34 40 46 52 59 67 74 79 84 89 95 99 101 101 100 100 100 101 101 101 100 100 100 101 100 100 101 103 104 101 98 98 100 100 96 88 76 64 54 46 40 35 33 32 31 33 35 36 35 33 32 30 28 27 27 24 20 15 13 13 14 16
101 102 101 99 94 89 84 80 74 69 63 56 49 42 35 31 28 26 26 27 30 33 37 42 48 54 60 66 72 78 84 90 96 100 101 100 100 100 100 101 101 100 100 100 100 101 101 100 100 102 104 102 100 98 99 100 98 91 81 69 58 50 43 37 34 33 33 34 35 36 36 34 32 31 30 27 27 25 19 15 14 13 13 16 17
101 100 97 92 87 83 78 72 65 57 49 42 36 31 28 27 27 28 30 33 37 40 43 48 53 59 66 73 79 85 91 96 100 101 100 100 100 100 100 101 101 100 100 100 100 101 100 100 101 103 102 100 99 99 99 99 94 86 74 62 53 46 40 36 35 34 35 36 37 36 34 33 32 30 28 27 25 20 15 13 13 13 15 17 16
99 96 91 86 82 76 69 61 53 44 38 33 31 30 30 31 32 34 37 40 43 46 49 54 59 66 73 81 87 93 98 100 100 100 100 100 100 100 100 100 100 100 100 100 100 100 100 101 102 103 102 100 99 99 99 97 91 80 68 57 49 43 38 36 36 37 37 38 36 34 33 32 30 28 27 25 20 15 12 12 13 14 16 16 18
95 91 85 79 72 64 56 49 42 37 35 34 35 35 36 37 38 41 43 45 48 51 55 59 66 73 80 87 92 97 100 101 100 100 100 100 100 100 100 100 100 100 100 100 100 100 100 101 102 103 102 100 99 99 98 94 84 72 60 51 44 40 37 36 37 39 39 37 34 32 31 30 29 28 25 20 15 12 12 13 14 15 15 18 33
89 82 75 67 60 53 47 43 40 40 40 41 41 42 43 44 45 47 49 50 53 56 60 65 71 79 86 92 96 100 101 100 100 100 100 100 100 100 100 100 100 100 100 100 100 100 100 101 103 104 101 99 99 99 96 88 76 63 54 46 41 38 37 37 39 40 38 35 32 30 29 28 27 26 21 15 12 12 12 13 14 14 16 32 60
78 71 65 59 54 51 48 47 46 46 47 47 48 48 49 51 52 53 54 57 59 61 65 70 76 84 91 96 99 100 101 100 100 100 100 100 100 100 100 100 100 100 100 100 100 100 100 102 104 103 100 98 99 98 90 79 67 56 49 43 40 38 39 40 40 38 36 33 31 29 28 27 26 21 16 12 11 12 12 13 13 15 28 56 85
71 66 63 60 57 55 54 53 53 53 53 53 54 55 56 57 58 59 60 62 64 67 72 77 82 88 95 98 99 100 100 100 100 100 100 100 100 100 100 100 100 100 100 100 100 100 101 103 104 102 99 99 98 93 83 71 60 51 45 42 40 40 41 41 39 36 33 31 30 28 27 26 22 16 12 11 11 12 12 11 13 27 53 82 99
71 68 66 64 62 60 59 58 58 58 58 58 60 61 62 63 64 64 66 67 69 73 78 83 88 92 96 97 98 99 99 99 100 100 100 100 100 100 100 100 100 100 100 100 100 100 102 104 103 101 99 99 95 86 75 64 54 48 44 42 42 42 42 39 36 33 31 30 29 27 26 22 17 12 11 11 11 11 11 12 25 51 81 98 101
73 71 70 68 66 64 63 62 61 61 62 63 65 67 68 68 69 69 70 71 74 78 82 86 90 93 95 95 97 97 97 98 100 100 100 100 100 100 100 100 100 100 100 100 100 101 104 105 102 100 99 96 88 77 67 58 50 46 44 43 42 42 40 37 34 32 29 28 28 26 23 18 13 10 10 11 10 9 12 24 49 79 97 101 100
Wind_Speed
30 29 26 25 24 24 24 24 24 24 23 23 23 23 23 23 23 23 24 24 24 24 25 25 26 26 27 28 28 29 29 30 31 31 32 32 32 31 31 30 30 29 29 29 29 29 30 30 30 29 30 30 31 31 32 33 33 33 34 34 34 34 35 35 36 37 36 35 34 33 32 32 32 32 32 31 31 31 30 30 30 30 30 30 30
29 28 25 24 23 22 23 23 24 24 23 24 24 24 24 24 24 24 25 25 25 25 25 26 27 27 28 29 29 30 30 31 31 32 32 32 32 32 31 31 30 30 29 29 30 30 30 30 30 29 30 30 30 31 31 32 32 32 32 32 32 32 32 32 33 33 33 32 32 32 31 31 31 30 30 30 30 30 29 29 29 29 29 30 30
28 27 25 24 23 22 22 23 24 24 24 24 24 24 24 24 24 25 25 26 26 26 26 27 27 28 28 29 30 30 31 31 32 32 32 33 33 32 32 31 30 30 30 30 30 30 30 30 30 30 30 30 30 31 31 31 31 31 31 30 30 30 29 29 30 30 30 30 30 31 31 30 30 30 30 30 30 30 29 29 29 28 28 29 29
27 27 25 24 23 23 23 24 24 25 25 25 25 25 25 25 25 25 25 26 26 27 27 28 28 28 29 29 30 31 31 32 32 32 33 33 33 33 32 31 31 30 30 30 30 30 30 30 30 30 30 30 30 30 29 29 29 29 29 28 28 27 27 27 28 28 29 29 29 30 30 30 30 30 29 29 29 29 29 29 28 28 27 27 27
26 27 25 24 24 23 24 25 25 26 26 26 26 26 26 26 26 26 26 26 27 28 28 28 28 29 29 30 30 31 31 32 32 33 33 33 33 33 32 31 31 31 31 31 31 31 31 31 31 31 30 30 29 28 28 27 27 27 27 27 26 26 26 26 27 27 28 29 29 29 30 30 30 29 29 29 28 28 28 27 27 27 26 25 25
25 26 24 24 24 24 25 25 26 27 27 27 27 26 27 27 27 27 27 27 28 28 29 29 29 29 29 30 30 31 31 32 32 33 33 33 33 33 32 31 31 31 31 31 31 31 31 31 31 31 31 30 28 27 26 25 25 25 25 25 26 26 26 26 26 27 27 28 28 29 29 29 29 28 28 27 27 26 27 26 25 25 24 24 23
25 26 25 24 24 25 26 26 27 28 28 29 28 27 27 27 28 28 28 28 29 29 29 29 29 30 30 30 31 31 31 32 32 32 33 33 33 32 32 31 31 31 31 31 31 31 31 32 32 31 30 29 28 26 25 24 24 24 24 25 25 26 26 26 26 26 27 27 27 27 28 27 27 27 26 26 25 25 25 25 24 24 23 23 22
25 26 26 26 26 26 27 27 28 29 29 30 29 29 28 28 29 29 29 29 29 30 30 30 30 30 30 31 31 31 32 32 32 32 32 33 33 32 32 31 31 31 31 31 31 31 31 32 32 31 30 29 27 26 25 24 24 24 24 24 25 25 26 26 26 26 26 25 25 25 26 26 25 25 24 24 23 23 23 23 23 24 24 24 23
25 26 27 27 27 28 29 29 30 30 31 31 30 30 30 29 29 29 29 30 30 30 31 30 30 30 30 31 31 31 31 31 32 32 32 32 33 32 32 31 31 31 31 31 31 31 31 31 31 31 30 28 27 26 25 24 24 24 24 24 25 25 25 25 25 26 25 24 23 23 23 24 23 23 22 22 22 22 22 22 22 23 24 25 24
25 26 27 28 29 30 30 30 31 32 33 32 32 31 31 30 30 30 30 30 30 30 30 30 31 30 30 31 31 31 32 31 31 32 32 32 32 32 32 31 31 31 31 31 30 31 31 31 31 30 29 28 26 25 24 24 24 25 25 25 25 25 25 24 24 25 24 23 22 21 21 22 22 22 21 21 21 21 22 22 23 23 24 25 26
26 27 29 29 31 32 32 32 33 34 34 34 33 32 31 30 30 30 30 30 30 30 30 30 31 31 31 31 31 32 32 31 31 31 32 32 32 32 32 31 31 31 30 30 30 31 31 30 30 29 28 27 26 25 24 24 24 25 25 25 25 25 25 23 23 23 23 22 21 20 20 21 21 21 21 21 22 22 22 22 23 24 24 25 26
27 29 29 31 32 32 33 34 35 36 35 34 33 32 31 31 30 30 30 30 30 30 30 30 31 31 31 31 32 32 32 32 32 31 31 32 32 32 31 31 31 31 30 30 30 30 30 30 29 29 28 27 26 25 24 24 24 25 25 25 25 25 25 23 22 22 22 21 20 19 19 20 21 21 21 21 22 22 22 22 23 24 25 26 27
28 29 30 31 33 33 34 36 37 37 36 34 32 31 30 30 30 30 30 30 30 30 30 30 31 31 31 32 32 32 32 32 32 31 31 32 31 31 31 31 31 30 30 30 30 30 29 29 29 28 27 26 25 24 24 24 24 24 25 25 24 24 24 23 22 21 21 21 20 19 19 20 21 21 21 21 22 22 22 23 24 25 26 28 28
28 30 31 32 33 34 36 38 37 36 34 32 31 30 30 30 30 30 30 30 30 30 30 31 31 31 32 32 32 32 32 32 32 32 32 32 31 31 31 30 30 30 29 29 29 29 29 28 28 27 27 26 25 24 24 23 24 24 24 25 24 23 22 22 22 21 20 20 20 19 19 19 20 22 21 21 21 22 23 24 24 25 27 28 30
28 30 31 32 34 36 37 36 34 32 31 30 30 29 29 29 29 30 30 30 30 31 31 31 31 32 32 32 32 32 32 32 32 32 32 32 31 31 30 30 30 29 29 29 29 28 28 28 27 26 26 25 25 24 24 24 24 24 24 24 24 23 21 21 21 21 20 20 20 20 19 18 19 21 22 22 21 22 23 24 25 26 27 29 30
29 31 32 33 35 36 34 32 30 29 29 28 28 29 29 29 29 29 30 30 30 31 31 32 32 32 32 32 32 32 32 31 31 32 32 31 31 31 30 30 30 29 29 29 28 28 28 27 26 26 26 25 24 24 24 24 24 24 24 24 23 23 22 21 20 21 21 21 21 20 20 19 18 19 21 22 23 23 24 24 26 27 27 29 30
30 31 32 33 33 31 29 28 27 27 27 28 28 29 29 30 30 30 30 30 31 31 31 32 32 32 32 32 32 32 32 31 31 32 32 31 31 31 30 30 30 30 29 29 28 28 27 27 26 26 25 25 24 24 23 24 24 24 23 23 23 22 22 21 21 21 21 21 21 21 20 20 19 19 19 21 23 24 25 25 26 28 29 29 30
29 31 32 31 30 28 27 27 27 27 28 29 29 30 30 31 31 31 31 31 31 31 31 32 32 32 32 32 32 32 32 31 31 31 31 31 31 31 30 30 30 30 29 29 28 28 27 27 26 25 25 24 24 24 23 24 24 24 23 23 22 22 22 21 21 21 21 21 21 21 21 20 20 20 20 21 22 24 25 26 27 29 30 31 32
30 31 31 29 28 28 28 27 28 28 29 30 31 31 32 32 31 31 31 31 31 31 31 32 32 32 32 32 32 32 32 32 31 31 31 31 31 30 30 30 29 29 29 28 28 27 27 26 26 25 25 24 24 24 23 24 24 24 23 23 22 22 22 22 21 21 21 21 21 21 21 21 21 21 21 22 23 24 26 27 28 29 31 32 33
30 31 29 28 28 28 29 29 30 30 31 32 32 33 33 32 32 32 31 31 31 31 31 31 32 32 32 32 32 32 32 32 32 32 32 31 31 30 30 29 29 29 29 28 28 27 26 26 25 25 25 24 24 24 23 24 24 24 23 23 22 22 22 21 21 21 21 20 20 20 20 20 21 21 22 23 24 25 26 28 29 30 31 32 33
30 30 30 29 30 30 30 31 31 31 32 33 33 34 33 33 33 32 32 31 31 31 31 31 32 32 32 32 32 32 32 32 32 32 32 31 31 30 29 29 29 29 29 29 28 27 26 25 25 25 24 24 24 23 23 23 24 24 24 23 22 22 22 21 21 21 21 20 20 20 20 20 21 21 23 23 24 26 27 28 29 30 31 32 33
31 31 31 31 31 32 32 32 32 33 34 35 35 35 34 33 33 32 32 31 31 31 31 31 31 32 32 32 32 32 32 32 32 32 32 31 31 30 29 29 29 29 29 29 28 27 26 25 25 25 25 24 23 23 23 23 23 24 24 24 23 22 21 21 21 20 20 20 19 19 20 20 21 22 23 24 25 26 28 29 30 31 32 33 34
32 31 31 31 32 33 33 34 34 35 35 36 37 36 35 34 33 32 32 31 31 31 30 31 31 31 31 32 32 32 32 32 32 32 32 31 31 30 29 28 28 28 29 28 28 27 26 25 26 25 25 24 23 23 23 23 23 23 24 24 24 23 22 21 21 20 20 19 19 19 19 20 21 22 24 25 26 26 28 30 31 32 33 33 34
31 30 30 32 33 34 35 36 36 37 37 38 38 37 36 34 33 32 32 31 31 30 30 30 30 31 31 31 31 32 32 31 31 32 32 31 31 30 29 28 27 28 28 28 27 26 26 26 26 25 24 24 23 22 22 22 23 23 23 23 23 22 21 21 20 20 20 20 20 20 20 20 21 23 24 26 27 27 28 30 32 33 34 35 35
30 30 32 34 35 37 37 37 38 39 39 39 39 38 36 34 33 33 32 31 31 30 30 30 30 30 31 31 31 32 31 31 32 32 32 32 31 29 28 27 27 27 27 27 27 26 25 26 26 25 24 24 23 22 22 22 22 23 23 23 23 22 21 20 20 20 20 20 20 20 20 21 21 23 24 25 27 28 29 30 32 34 35 36 36
33 33 34 36 37 38 38 38 39 40 41 41 40 38 37 35 34 33 33 32 31 31 30 30 30 30 31 31 32 32 32 32 32 32 33 32 31 29 27 26 26 26 26 26 26 25 25 26 26 25 24 23 23 22 22 22 22 23 23 23 23 22 21 20 20 20 20 21 21 21 21 22 22 23 24 26 28 29 30 32 33 34 36 37 37
36 37 37 38 38 38 39 40 41 42 42 41 40 38 36 34 33 33 33 32 32 31 31 30 30 30 30 31 31 32 32 32 32 33 33 32 31 28 27 26 26 26 26 26 25 25 26 26 26 25 24 23 23 22 22 22 22 23 23 23 22 22 21 20 20 20 20 21 21 21 22 22 23 24 25 27 29 30 32 33 34 35 37 39 39
38 39 40 40 40 39 40 41 42 42 42 41 39 37 35 34 33 33 33 32 32 31 30 30 30 30 30 30 31 31 31 32 32 33 33 32 30 29 27 26 26 26 26 26 25 26 26 26 26 25 24 23 23 22 22 22 22 23 23 23 22 21 21 21 21 21 21 21 21 22 22 22 23 25 26 27 29 31 33 34 36 37 38 40 41
40 41 41 41 41 41 42 42 43 42 41 39 38 36 35 34 33 33 33 32 32 31 31 31 31 31 31 31 31 31 32 32 33 33 33 32 31 30 27 26 26 26 26 26 26 26 27 26 26 25 24 23 23 22 22 22 22 23 23 23 22 21 21 21 21 21 21 21 21 22 22 22 24 25 26 28 29 31 33 35 37 38 39 41 42
42 42 41 41 42 42 42 42 41 40 39 38 36 35 34 34 34 34 33 33 32 32 32 32 32 32 32 32 32 32 33 33 33 33 33 33 32 31 28 27 26 26 26 26 26 27 27 26 26 25 24 23 22 22 22 22 23 23 23 22 22 21 21 21 21 21 21 21 22 22 22 22 24 25 26 28 29 31 33 35 37 39 40 41 42
42 42 41 41 41 41 41 41 39 38 37 36 35 35 34 35 35 34 34 34 33 33 33 33 33 33 33 33 34 33 34 34 34 34 34 33 32 31 29 27 26 26 26 26 26 27 27 26 26 25 24 23 22 22 22 22 23 23 23 22 21 20 20 20 20 21 21 21 22 22 22 23 24 25 26 28 29 30 33 35 37 38 40 41 43
42 41 41 40 40 40 39 39 38 37 37 36 35 35 35 35 35 35 35 35 34 34 34 34 34 34 34 35 35 34 35 35 35 35 34 34 33 31 30 28 27 26 25 26 26 27 27 27 26 25 23 23 22 22 22 22 23 23 23 22 21 20 20 20 20 20 20 21 21 22 23 23 24 25 27 28 29 31 32 34 36 38 40 41 42
41 39 39 39 38 38 38 38 38 37 36 36 36 36 36 36 36 36 36 36 36 36 36 36 36 36 36 36 36 36 36 36 36 36 35 34 33 32 30 29 27 26 25 25 26 27 28 27 26 25 23 22 22 22 22 23 23 23 22 21 21 20 20 20 20 20 20 21 21 22 22 23 24 25 27 28 30 32 33 34 36 38 40 42 43
39 38 38 38 37 37 37 38 37 37 37 37 37 37 38 38 38 38 38 38 38 38 38 38 39 39 38 38 38 38 38 38 37 37 36 35 33 32 31 30 28 25 24 24 26 28 29 28 26 24 23 22 22 22 22 23 23 23 22 21 20 20 20 20 20 20 20 20 21 22 23 24 25 26 27 28 31 32 33 35 37 39 41 43 44
39 39 39 38 37 37 38 37 37 37 38 38 38 39 39 39 39 39 39 40 40 40 41 41 41 41 41 41 40 40 40 40 39 38 37 35 34 32 31 30 27 25 24 24 26 28 29 27 25 24 23 22 22 22 23 23 23 22 21 20 20 20 20 20 20 20 20 20 21 22 23 24 25 26 28 29 31 33 34 35 37 39 41 43 45
41 41 40 39 39 39 38 38 38 39 39 39 40 40 41 41 41 41 41 42 42 42 43 43 44 44 44 43 43 42 42 41 40 39 37 35 34 33 31 28 26 25 24 24 26 28 28 27 25 24 23 22 22 22 23 23 23 21 20 19 20 20 20 20 20 19 19 20 21 22 23 24 26 27 28 30 31 33 34 36 37 39 41 44 45
43 43 41 40 40 40 40 39 39 40 40 41 41 42 42 42 43 43 43 44 44 45 46 46 46 47 46 46 45 44 43 42 41 39 37 35 33 32 30 28 26 25 24 24 26 27 26 25 24 23 22 22 22 22 23 23 22 20 19 19 19 20 20 20 19 19 19 20 21 22 23 25 26 28 29 30 31 33 35 37 38 39 41 43 44
45 43 42 41 41 40 40 40 40 40 41 41 42 42 43 43 43 44 45 46 46 47 48 48 48 48 48 47 46 45 43 42 40 38 37 35 33 31 30 28 27 26 25 25 25 25 25 24 24 23 22 22 22 22 22 22 20 19 18 18 19 19 19 19 19 18 18 19 21 22 23 25 26 28 30 31 32 33 35 37 39 40 41 41 43
44 43 42 41 40 40 40 40 40 40 41 41 42 43 43 44 45 45 46 47 48 49 49 49 49 48 47 47 46 45 42 41 39 37 36 34 32 31 29 28 27 26 25 25 24 24 23 23 23 22 22 22 22 22 22 21 19 18 18 18 19 19 19 18 17 18 18 19 21 22 23 25 27 28 30 31 33 34 35 37 39 40 41 42 43
42 41 41 40 39 39 39 39 40 41 41 42 42 43 44 45 46 46 47 48 48 48 48 48 47 46 45 45 44 43 41 39 38 36 35 33 31 30 29 27 26 26 25 24 23 23 22 22 22 22 22 22 21 21 21 20 19 18 17 18 18 18 18 17 17 17 18 19 21 22 24 25 27 28 29 31 33 34 36 37 38 39 41 42 44
40 40 39 39 38 38 39 39 40 41 41 42 43 44 45 45 46 46 46 46 46 46 45 44 43 42 42 42 41 41 39 38 36 35 33 31 30 29 28 26 25 24 24 23 23 22 21 21 21 21 21 21 21 20 20 19 18 17 17 18 18 17 17 16 16 17 18 19 21 22 24 25 27 28 29 31 33 34 36 37 38 39 40 42 44
39 38 38 38 38 38 39 39 40 41 42 43 43 44 44 45 45 44 44 43 42 42 40 39 38 38 38 38 38 38 37 35 34 33 31 30 29 28 27 25 24 24 24 23 23 22 21 21 21 21 21 20 20 19 19 18 17 17 17 17 16 16 16 16 16 17 18 19 21 22 24 25 27 28 30 31 32 34 35 36 37 38 40 41 44
37 37 37 38 38 39 39 40 41 41 42 43 43 43 43 43 42 41 40 39 38 38 37 36 35 35 34 35 35 35 34 33 31 30 29 28 27 27 26 25 24 24 24 23 22 20 20 20 21 21 21 20 19 19 18 17 16 16 16 16 15 15 15 16 17 17 18 19 20 22 24 25 27 28 30 31 32 33 34 35 36 38 40 42 43
37 37 38 38 39 39 40 41 41 41 42 42 41 41 40 40 39 38 37 36 35 35 34 34 33 32 32 32 32 32 31 30 29 28 27 27 26 26 25 24 23 23 23 21 20 19 19 20 21 21 20 19 19 18 17 16 16 16 15 15 15 15 15 16 16 17 18 19 20 21 23 25 26 28 29 30 31 32 32 34 36 37 39 41 43
37 38 38 38 39 39 40 40 40 40 40 39 38 38 37 36 35 35 34 33 33 33 32 32 31 31 31 30 30 30 29 27 26 26 25 25 25 24 24 23 23 22 21 19 19 19 19 20 21 20 19 18 18 17 16 15 15 15 14 14 14 15 15 15 16 17 18 19 20 21 22 24 26 27 29 29 30 31 31 33 35 37 39 42 44
38 38 38 38 38 38 38 38 37 37 36 36 35 34 34 33 33 32 32 31 31 31 30 30 29 29 29 29 29 28 26 25 24 24 24 24 24 23 23 22 22 21 20 19 19 20 20 21 20 19 18 17 16 15 15 14 14 13 13 13 14 14 15 15 16 17 18 18 19 21 22 24 25 27 28 29 29 30 31 33 35 37 39 42 44
37 37 36 36 36 35 35 34 34 33 33 32 32 31 31 30 30 29 29 29 29 29 28 28 28 28 28 28 27 26 24 23 22 22 22 23 22 22 22 21 20 20 19 19 20 20 20 20 19 18 17 16 15 14 14 13 13 13 13 13 13 14 14 15 16 16 17 18 19 21 22 23 25 26 27 28 28 29 30 32 34 37 39 42 44
35 34 34 33 32 32 31 31 31 30 30 29 29 29 28 28 27 27 27 27 27 27 26 26 27 27 27 26 25 23 22 21 20 20 21 21 21 21 21 20 19 19 20 20 20 20 19 18 18 17 16 15 14 13 13 12 12 12 13 13 13 13 14 14 15 16 16 18 19 21 22 23 24 25 26 27 28 29 31 32 34 37 39 41 43
32 31 30 29 29 28 28 28 28 28 27 27 26 26 26 25 25 25 26 25 25 25 24 25 25 25 25 24 22 20 19 18 18 18 19 19 19 19 19 19 19 19 19 19 19 18 18 17 17 16 15 14 13 13 12 12 12 12 12 12 12 13 13 14 14 15 16 18 19 21 22 23 24 25 25 26 27 29 31 33 35 37 39 41 42
29 28 27 26 26 26 26 26 26 25 25 25 24 24 24 23 23 23 24 24 23 23 22 22 23 22 22 20 18 17 16 15 16 17 18 18 18 18 18 19 19 19 19 19 18 17 17 17 16 14 13 13 12 12 11 12 12 12 11 11 12 12 12 13 14 15 16 18 19 20 21 22 23 24 25 26 27 29 31 33 36 38 39 40 42
26 26 25 24 24 24 24 24 24 23 23 23 22 22 22 21 21 21 22 22 21 20 19 19 19 19 18 16 15 14 13 14 14 16 16 16 17 17 18 18 18 18 18 18 17 16 16 15 14 13 13 12 12 12 12 12 11 11 11 11 11 11 12 13 14 15 17 18 19 20 21 21 22 23 24 26 27 29 31 33 35 37 39 40 41
Wind_Direction
319 316 308 300 297 297 300 302 303 301 299 297 296 295 295 295 296 297 299 301 303 306 309 311 313 314 315 315 316 316 316 316 316 316 317 318 318 318 318 318 317 316 315 314 313 312 311 310 309 308 307 307 306 306 306 305 304 302 300 299 298 297 296 295 294 295 296 296 297 297 298 297 296 295 294 294 293 293 292 290 288 287 285 284 283
321 315 306 299 297 298 301 304 305 304 301 299 298 297 296 296 297 299 300 303 305 308 310 312 313 314 314 315 315 315 315 315 316 316 317 317 318 318 318 317 317 316 315 314 313 313 311 310 310 309 309 308 308 308 307 306 305 303 301 300 299 299 298 297 297 297 297 297 298 298 299 298 298 297 296 295 294 293 292 291 290 288 288 287 287
321 315 306 302 302 302 303 307 308 307 305 303 301 300 299 300 300 301 302 304 307 309 311 312 312 312 313 314 314 314 315 315 315 316 317 317 318 318 317 317 316 316 315 314 314 313 312 311 310 310 310 309 309 309 308 307 306 305 304 302 301 301 300 300 300 299 299 299 299 299 299 298 298 297 297 296 295 294 293 292 291 291 290 290 289
319 314 307 304 305 305 305 308 310 310 310 307 304 303 303 303 303 303 304 306 307 309 310 310 310 310 311 312 313 313 314 315 315 316 316 317 317 317 317 316 316 316 315 315 314 313 313 312 311 310 310 310 309 309 309 308 308 307 306 305 304 303 302 302 302 301 301 300 300 299 299 298 298 297 297 296 295 295 294 293 292 292 291 290 290
316 313 307 305 307 306 306 308 310 311 312 310 307 306 305 306 306 306 306 306 307 307 307 308 308 309 310 311 312 313 313 314 315 315 316 316 316 316 316 316 316 316 315 315 314 314 313 312 311 310 310 309 309 309 309 309 309 308 307 306 305 304 303 303 302 301 301 301 300 299 298 298 297 297 296 296 296 295 294 294 293 293 292 291 290
312 310 307 306 308 308 307 308 310 312 314 312 310 308 307 307 307 307 306 306 306 306 306 306 307 308 310 310 311 312 312 313 314 314 314 314 315 315 314 315 315 314 314 314 314 314 313 312 311 310 309 309 309 309 309 309 309 308 307 307 306 304 303 302 302 301 300 300 299 299 298 297 296 296 297 297 297 296 295 295 294 293 293 292 291
308 307 306 308 309 309 308 309 311 313 315 314 312 310 309 308 307 307 306 305 305 305 305 306 307 308 309 309 310 311 311 312 312 313 313 313 314 314 313 314 314 313 314 314 314 313 312 311 310 309 309 309 308 308 308 308 308 307 307 306 305 304 303 302 301 300 298 298 298 298 297 297 296 296 297 297 298 298 297 297 296 295 293 292 290
303 304 305 308 309 309 309 310 312 315 316 315 313 312 310 309 307 306 305 304 304 304 305 306 307 308 308 308 309 309 310 310 311 311 312 312 313 313 313 313 313 312 313 313 313 313 312 310 310 309 309 308 308 309 308 308 307 306 306 305 305 304 303 303 302 299 298 297 297 298 297 297 297 297 298 298 298 298 297 297 297 297 296 294 293
300 302 304 307 308 309 310 311 314 316 316 316 314 313 312 310 308 306 304 304 304 304 305 306 307 307 307 307 307 308 308 309 310 311 312 312 312 312 312 312 312 312 312 312 312 312 311 310 309 308 308 308 308 309 309 308 308 306 305 305 304 304 303 303 302 299 298 297 298 298 298 297 297 298 298 298 298 298 297 296 295 295 295 294 294
296 300 304 305 306 309 311 312 314 316 316 315 314 313 312 310 307 305 304 303 303 304 305 305 306 306 306 306 306 307 307 308 310 311 311 312 312 312 311 311 311 311 311 311 311 311 309 309 308 307 307 307 307 308 308 308 307 306 305 305 304 303 302 302 301 299 298 298 298 298 298 298 297 298 299 298 297 297 296 296 295 294 294 294 295
294 300 303 304 306 309 311 313 314 315 315 313 313 312 310 308 306 304 304 303 303 304 304 304 305 305 306 306 306 306 307 308 310 311 311 311 311 311 310 310 310 310 310 310 310 309 308 307 307 306 306 305 305 306 306 306 306 306 306 305 304 303 302 301 300 298 297 296 296 296 296 297 297 297 298 297 296 296 295 295 295 295 294 294 295
294 299 302 303 306 308 311 312 313 313 312 311 311 310 308 306 305 304 304 304 303 304 304 304 305 305 305 306 306 306 307 308 309 310 311 311 310 310 310 310 310 310 310 310 309 308 307 306 306 305 304 304 304 303 304 305 305 306 306 305 304 303 301 300 298 297 296 295 294 295 296 296 296 296 296 296 295 296 296 296 297 297 297 297 296
294 297 299 302 305 307 309 311 311 311 311 310 310 309 307 306 305 305 305 305 305 305 305 305 305 305 305 305 305 306 307 308 309 310 310 310 309 309 309 309 309 309 309 308 307 307 306 305 304 304 303 302 302 302 303 305 306 306 305 304 303 302 301 299 296 295 294 294 294 294 295 295 295 295 295 296 297 298 299 300 300 301 301 300 300
292 295 298 301 304 306 309 310 310 310 310 311 310 310 309 308 307 307 307 307 307 307 307 306 306 306 305 305 305 305 306 308 309 309 309 309 309 309 309 309 309 308 308 307 306 305 304 303 302 301 301 300 300 300 302 303 304 305 304 303 301 299 299 297 295 293 292 292 292 292 293 293 294 295 296 297 298 300 301 302 303 303 303 303 304
291 295 298 301 304 308 309 309 310 311 312 312 312 311 311 310 310 310 309 309 308 308 307 307 306 306 306 305 305 305 306 308 309 309 309 308 309 309 308 308 308 308 307 306 305 303 302 301 300 299 298 298 298 299 301 302 303 303 303 302 300 298 296 294 293 292 291 291 291 291 291 292 293 296 298 300 301 301 303 304 304 305 305 306 306
292 295 299 303 307 310 310 311 312 314 314 315 314 314 313 313 312 311 310 310 309 308 308 307 307 306 306 306 306 306 307 308 308 308 308 308 308 308 307 307 307 307 306 305 303 302 300 299 297 296 296 295 295 297 299 301 303 303 303 303 301 298 296 293 291 291 291 291 291 292 292 293 294 298 300 302 304 304 304 305 306 307 307 307 306
291 295 300 306 309 311 312 314 316 317 317 317 317 316 316 314 313 312 311 310 309 308 308 307 307 307 306 306 306 306 307 308 308 307 307 307 307 306 306 306 306 306 305 303 301 300 297 296 295 293 293 292 293 295 298 300 302 303 304 303 300 299 297 294 292 292 292 293 293 294 295 297 299 299 299 301 302 304 306 307 307 307 306 305 304
291 297 302 306 309 312 315 317 318 319 320 320 319 319 317 315 314 313 311 310 309 308 308 307 307 307 307 307 307 307 307 308 308 307 307 306 305 305 305 305 305 305 304 302 299 297 295 293 292 290 290 290 291 294 297 299 302 304 304 302 300 298 296 294 293 292 292 293 294 296 298 300 302 302 302 302 303 305 307 308 308 307 306 306 306
293 298 302 305 309 313 316 317 318 319 320 320 319 319 317 315 314 312 311 310 309 309 308 308 308 307 307 307 307 308 308 308 308 307 306 305 304 303 304 304 304 304 303 300 297 294 292 290 289 288 288 289 290 293 296 299 302 305 306 303 300 297 295 293 292 292 292 293 295 298 300 301 303 304 306 306 307 307 308 308 308 308 308 309 309
294 299 302 305 308 312 314 316 317 318 318 318 318 317 316 314 313 311 310 309 309 309 308 308 308 308 308 308 308 308 309 308 308 307 306 304 303 303 303 303 303 303 301 298 295 292 290 288 287 286 286 287 290 292 296 300 303 305 305 303 300 297 294 293 292 292 293 294 296 298 299 301 303 304 305 306 306 307 308 309 309 309 309 310 310
295 298 300 302 306 309 311 313 315 316 316 316 315 315 314 313 311 310 310 309 309 308 309 309 309 309 309 309 309 309 308 308 308 306 305 304 303 302 302 302 303 302 300 297 294 291 288 286 284 284 285 287 289 293 296 299 302 304 304 302 299 296 294 293 293 293 295 296 297 298 298 300 301 303 305 306 307 309 309 310 310 309 310 311 312
297 297 298 300 303 305 308 310 313 314 314 314 313 313 312 311 310 309 308 308 308 308 308 309 309 309 309 308 308 308 308 308 307 306 305 303 302 301 301 301 301 301 299 296 293 289 286 283 282 283 284 287 290 293 296 299 301 303 304 302 300 296 294 294 294 294 295 296 296 297 297 299 302 304 306 308 309 310 310 310 310 310 311 313 315
296 296 297 299 301 304 306 308 311 312 313 312 312 311 310 309 308 308 307 307 307 307 308 308 308 308 308 308 308 308 308 308 307 306 304 303 301 300 300 300 300 299 298 295 290 286 282 280 280 281 283 286 289 293 296 298 301 303 303 302 300 297 295 295 295 295 295 295 296 297 299 302 305 307 309 310 310 311 311 310 311 312 314 316 318
295 296 298 300 302 303 305 306 308 310 311 311 310 309 308 307 307 306 306 306 306 306 307 307 308 307 307 308 308 308 309 309 307 306 304 303 301 300 299 299 299 298 296 293 288 283 279 277 277 278 281 284 288 292 295 298 301 303 302 300 298 296 295 295 296 296 296 297 298 300 303 305 307 309 310 311 311 312 312 312 313 315 316 318 320
293 296 298 300 302 303 303 304 305 308 309 309 308 307 306 305 306 306 306 305 305 306 307 307 308 308 308 308 309 309 309 309 307 306 304 303 301 300 300 300 299 297 295 291 286 280 276 274 274 276 280 283 287 291 294 297 300 302 302 299 296 293 293 294 295 296 298 299 301 303 305 306 307 309 310 311 311 312 313 314 315 317 317 318 320
291 294 297 300 302 302 302 303 304 306 307 307 306 305 303 304 305 305 305 304 305 306 306 307 308 308 308 309 309 309 309 309 308 306 305 303 302 301 301 300 298 296 293 289 283 277 273 272 272 275 279 283 287 291 294 297 300 302 301 298 295 293 293 294 295 297 299 301 303 304 305 306 308 310 311 312 313 314 315 315 316 316 316 317 319
289 292 296 300 301 301 301 302 303 304 305 305 304 302 300 301 302 303 303 302 303 304 305 306 307 307 307 308 308 309 309 308 308 307 305 304 303 301 299 297 295 294 290 285 280 274 270 269 271 274 278 282 287 291 294 298 301 302 302 299 296 294 295 296 298 300 301 302 302 303 305 307 309 312 314 314 315 315 315 316 316 317 317 318 320
288 291 294 297 299 299 300 301 302 302 303 302 300 299 298 298 300 301 301 300 301 302 303 304 305 305 306 306 307 308 308 308 308 308 307 305 302 299 297 295 294 292 287 282 277 271 268 268 270 273 277 281 286 291 295 299 302 303 303 300 297 296 296 298 299 301 301 301 302 304 306 309 311 313 314 315 315 315 315 316 316 317 318 319 321
289 291 294 296 296 297 298 299 300 300 300 299 297 296 296 297 299 300 299 298 299 300 300 301 302 303 305 306 306 308 308 308 308 308 307 305 302 299 297 295 293 290 286 280 273 268 266 267 269 272 276 281 286 291 295 299 302 304 304 301 298 297 297 298 300 300 300 301 302 304 307 310 311 313 314 314 315 315 315 316 316 318 320 321 322
291 291 292 293 293 295 296 297 298 297 296 295 294 294 294 296 297 297 297 296 296 297 297 299 300 302 303 304 305 306 307 307 307 307 306 304 301 299 296 294 292 289 285 279 271 266 266 266 268 270 275 280 285 291 295 300 303 305 304 301 298 297 297 298 299 299 300 301 303 305 307 309 310 311 312 313 314 315 315 316 317 319 321 321 322
289 290 290 291 292 294 295 295 294 294 293 292 291 291 292 294 295 294 294 293 293 293 295 296 297 299 300 301 302 303 304 304 304 304 304 302 300 298 295 292 290 287 283 277 271 266 265 265 266 269 274 279 285 290 295 300 303 305 303 300 296 295 295 297 298 299 300 301 303 305 308 309 310 311 312 313 314 315 316 317 319 320 321 322 323
287 288 290 291 292 292 292 292 291 290 289 288 288 288 290 291 292 291 291 290 290 291 292 293 295 296 298 299 300 300 301 301 301 301 301 300 298 296 294 291 288 285 282 276 269 265 263 263 265 268 273 278 284 290 295 299 302 304 302 298 294 293 294 296 297 298 299 301 303 305 307 308 310 312 312 314 315 316 317 319 320 321 321 322 323
285 288 289 290 290 290 289 289 288 287 286 286 286 287 288 290 290 290 289 289 289 290 291 292 293 294 295 296 297 298 298 298 298 298 298 298 297 295 292 290 287 284 281 275 267 263 262 262 264 267 272 277 284 289 295 299 302 303 301 297 294 294 295 297 298 298 300 301 303 305 307 309 311 312 313 315 316 317 319 321 321 322 322 322 324
285 288 289 288 288 288 288 287 286 285 284 284 285 286 288 289 290 290 290 289 289 290 290 291 292 292 293 294 295 295 296 296 296 295 295 295 295 293 291 289 287 284 279 272 264 261 261 262 263 266 271 277 283 289 295 299 302 303 300 296 294 295 296 298 298 299 301 303 305 307 309 310 311 313 315 317 318 319 321 323 323 324 324 324 326
285 287 288 286 286 287 286 285 284 283 283 283 284 286 287 289 290 290 290 290 290 290 290 290 291 291 292 292 292 293 293 293 293 293 293 293 292 291 289 288 286 281 275 267 261 260 261 261 263 266 270 276 283 289 295 299 302 302 299 295 294 296 297 298 299 300 302 304 306 309 310 310 312 315 317 319 319 321 323 325 325 325 326 326 327
285 287 286 285 286 286 286 284 283 283 282 283 284 286 287 289 290 290 290 290 290 289 289 289 290 290 290 290 290 290 290 290 290 291 290 290 289 289 288 286 282 276 270 264 261 260 260 260 262 265 270 276 283 289 294 299 302 301 298 294 294 295 296 298 299 301 303 306 308 309 309 311 314 316 318 320 321 323 325 325 326 327 328 328 328
285 285 284 284 285 285 284 283 282 282 283 283 285 286 287 288 288 289 289 288 288 288 289 288 289 289 288 288 288 288 288 288 288 288 288 287 286 286 285 281 276 270 265 261 259 259 259 259 260 264 269 276 283 288 294 298 300 299 295 293 293 294 295 297 299 301 305 307 308 309 311 313 315 317 319 321 323 325 326 327 327 328 329 329 329
283 282 282 283 283 283 283 282 282 282 283 284 285 285 286 287 287 287 287 287 287 288 288 288 288 288 287 287 286 286 285 285 285 285 285 284 283 281 279 276 271 266 262 259 257 257 258 257 258 262 269 275 282 287 293 297 298 294 291 291 291 293 294 296 300 303 306 307 307 309 312 314 316 319 321 323 325 326 328 328 328 329 330 330 330
280 280 280 281 282 282 282 282 283 283 283 284 284 285 285 286 286 287 287 288 288 288 288 287 287 287 286 286 285 284 283 282 282 281 281 280 279 277 274 272 268 263 260 258 256 255 254 254 257 262 268 274 280 287 293 296 294 289 287 289 290 292 294 297 301 304 305 306 307 310 312 315 318 321 322 324 326 328 329 329 329 329 330 331 330
279 279 280 280 281 281 281 282 282 283 283 284 285 286 287 288 288 289 289 289 289 288 288 288 287 286 285 284 283 282 281 280 279 278 277 276 275 272 270 267 264 260 257 255 253 251 250 251 255 261 266 273 280 287 292 293 289 285 285 287 289 291 295 299 302 304 304 306 308 311 314 317 320 322 323 325 327 329 330 330 330 330 331 330 329
278 278 279 280 280 280 281 281 282 284 285 286 288 289 289 290 290 290 290 290 290 289 289 288 287 286 285 284 283 281 280 279 278 277 275 273 271 268 265 262 258 255 253 251 249 247 246 249 254 260 266 273 280 287 291 289 285 283 285 287 289 293 297 300 302 303 304 307 310 313 316 319 321 323 325 327 329 330 330 330 331 331 331 330 329
279 279 280 281 281 282 283 284 286 287 288 289 290 291 291 291 291 291 291 291 290 290 290 289 288 287 286 284 283 282 280 279 277 275 273 270 267 264 260 256 252 250 248 246 244 243 244 248 253 259 266 273 281 286 287 284 280 281 284 287 290 294 297 298 300 302 304 308 312 316 319 321 322 324 326 328 329 330 331 331 331 330 330 329 329
281 282 283 284 285 287 288 289 290 290 290 291 291 291 292 292 292 291 291 291 290 290 290 289 289 288 286 285 283 282 281 279 276 273 270 266 262 259 255 251 248 246 244 242 242 241 243 247 253 260 266 274 281 284 282 278 277 280 284 287 291 293 294 296 298 301 306 311 315 319 321 322 323 325 328 329 330 330 331 331 330 330 329 329 330
284 285 286 287 288 289 290 290 291 291 291 291 291 291 291 291 290 290 290 290 290 290 289 289 289 288 286 285 283 281 280 277 273 270 267 263 258 254 250 246 243 242 240 239 239 239 242 247 254 260 267 275 279 279 276 274 277 281 284 287 289 290 292 294 298 303 309 314 318 320 321 322 324 326 328 329 330 331 332 331 330 329 330 330 331
286 287 288 288 289 289 289 290 290 290 290 289 289 289 289 289 289 289 289 289 289 289 288 288 287 286 285 283 282 280 278 275 271 267 263 259 254 250 245 241 239 237 236 235 235 237 241 247 254 261 268 274 276 273 271 273 278 281 284 285 286 287 291 295 299 306 313 317 319 320 321 323 326 328 329 329 330 332 332 331 330 330 330 330 331
288 288 288 288 289 289 289 289 288 288 288 287 287 287 287 287 288 288 288 288 289 288 287 287 286 285 283 282 280 279 276 272 268 264 259 254 250 245 240 237 234 232 230 229 231 235 241 247 255 263 269 271 270 268 269 274 278 280 281 281 282 286 291 296 302 310 315 318 319 320 322 326 329 329 328 330 331 332 333 332 331 330 331 331 333
288 288 288 288 288 288 287 287 286 286 286 286 286 287 287 287 288 288 288 288 288 287 287 287 285 284 282 280 278 276 272 268 264 259 254 249 244 239 235 232 229 226 225 226 229 235 242 249 257 264 267 266 264 265 269 274 276 275 275 277 281 286 292 298 306 312 316 318 320 322 326 329 330 329 329 330 332 333 333 332 331 331 331 333 335
288 288 288 287 287 286 285 285 285 285 285 286 286 286 287 287 288 288 288 288 288 288 288 287 285 283 281 278 275 272 268 263 258 253 248 244 239 235 231 227 223 222 223 226 230 237 244 251 258 263 262 260 260 264 268 271 271 270 272 276 280 287 294 302 309 314 317 319 322 326 329 331 330 329 330 332 333 334 333 332 331 332 333 334 336
288 287 286 286 285 285 284 284 284 285 285 285 286 286 287 287 288 289 289 289 289 289 288 287 285 282 279 275 271 266 261 257 252 248 243 239 234 230 226 222 220 220 223 227 233 239 246 253 258 258 256 256 259 264 266 265 264 266 271 276 281 290 299 306 312 316 318 322 326 328 330 331 331 330 331 333 334 334 334 332 332 333 335 336 338
286 285 285 285 284 284 284 284 284 284 285 285 285 286 287 288 289 290 290 290 290 289 288 287 284 280 274 269 264 258 253 249 246 242 238 234 229 224 221 219 219 221 224 229 235 242 248 253 255 253 251 254 259 262 261 260 261 265 271 277 284 295 305 310 314 318 322 326 329 330 330 332 332 332 332 333 335 335 333 332 333 334 336 338 340
284 284 284 284 283 283 283 283 283 284 284 285 286 287 287 288 290 291 292 291 290 288 287 284 281 275 269 263 256 249 244 240 237 235 232 228 223 219 217 217 219 223 227 232 239 245 248 249 248 246 249 254 257 256 255 257 261 266 272 281 292 303 309 313 318 322 325 328 329 330 332 333 334 334 334 335 335 334 333 333 334 335 337 339 341